Location: Bush Observatory
(40.2653°N, 94.3194°W)
Time: 22:41:25
(UTC-05:00)

Vanguard 1 - Visible Passes

Search period start: 28 April 2017 00:00
Search period end: 08 May 2017 00:00
Orbit: 654 x 3831 km, 34.3° (Epoch: 27 April)

Date Brightness Start Highest point End Pass type
(mag) Time Alt. Az. Time Alt. Az. Time Alt. Az.
28 Apr 12.7 01:09:16 10° WSW 01:31:59 67° SSE 01:51:42 10° E visible
28 Apr 12.5 03:35:00 10° W 03:58:24 72° S 04:13:57 10° ESE visible
28 Apr 13.3 20:53:34 10° SSE 21:04:58 19° SE 21:18:08 10° E visible
28 Apr 12.8 23:08:23 10° SSW 23:27:37 48° SSE 23:48:35 10° E visible
29 Apr 12.7 01:30:30 10° WSW 01:53:35 71° S 02:13:04 10° E visible
29 Apr 12.5 03:56:47 10° W 04:19:53 69° SSW 04:34:59 10° ESE visible
29 Apr 13.2 21:11:41 10° S 21:25:25 26° SE 21:41:57 10° E visible
29 Apr 12.8 23:28:50 10° SW 23:48:46 55° SSE 00:10:18 10° E visible
30 Apr 12.6 01:51:54 10° WSW 02:15:14 73° S 02:34:24 10° E visible
30 Apr 12.5 04:18:35 10° W 04:41:16 65° SSW 04:55:54 10° ESE visible
30 Apr 13.0 21:30:47 10° SSW 21:45:58 33° SE 22:04:48 10° E visible
30 Apr 12.7 23:49:34 10° SW 00:10:06 62° SSE 00:31:55 10° E visible
01 May 12.6 02:13:25 10° W 02:36:55 74° S 02:55:41 10° E visible
01 May 12.5 04:40:26 10° W 05:02:29 59° SSW 05:16:41 10° SE visible
01 May 12.9 21:50:28 10° SSW 22:06:40 40° SE 22:27:07 10° E visible
02 May 12.7 00:10:31 10° WSW 00:31:34 67° SSE 00:53:27 10° E visible
02 May 12.6 02:35:01 10° W 02:58:35 73° S 03:16:54 10° ESE visible
02 May 12.6 05:02:20 10° W 05:23:31 52° SSW 05:37:15 10° SE visible
02 May 12.8 22:10:34 10° SSW 22:27:32 48° SE 22:49:08 10° E visible
03 May 12.7 00:31:39 10° WSW 00:53:09 71° SSE 01:14:57 10° E visible
03 May 12.6 02:56:40 10° W 03:20:10 70° SSW 03:38:01 10° ESE visible
03 May 12.7 05:24:21 10° W 05:44:22 44° SW 05:57:34 10° SSE visible
03 May 13.1 20:14:35 10° S 20:26:12 24° SE 20:41:24 10° E visible
03 May 12.7 22:30:59 10° SW 22:48:35 55° SSE 23:10:58 10° E visible
04 May 12.7 00:52:56 10° WSW 01:14:50 74° S 01:36:24 10° E visible
04 May 12.6 03:18:22 10° W 03:41:38 66° SSW 03:59:00 10° ESE visible
04 May 12.9 20:33:41 10° S 20:46:37 31° SE 21:04:22 10° E visible
04 May 12.7 22:51:40 10° SW 23:09:49 62° SSE 23:32:42 10° E visible
05 May 12.7 01:14:20 10° W 01:36:33 74° S 01:57:48 10° E visible
05 May 12.7 03:40:07 10° W 04:02:58 60° SSW 04:19:49 10° SE visible
05 May 12.8 20:53:23 10° SSW 21:07:11 39° SE 21:26:48 10° E visible
05 May 12.7 23:12:34 10° WSW 23:31:13 67° SSE 23:54:23 10° E visible
06 May 12.7 01:35:49 10° W 01:58:15 73° S 02:19:08 10° ESE visible
06 May 12.7 04:01:55 10° W 04:24:06 53° SSW 04:40:25 10° SE visible
06 May 12.7 21:13:28 10° SSW 21:27:55 47° SE 21:48:55 10° E visible
06 May 12.7 23:33:37 10° WSW 23:52:46 71° SSE 00:16:01 10° E visible
07 May 12.7 01:57:20 10° W 02:19:55 71° SSW 02:40:20 10° ESE visible
07 May 12.8 04:23:51 10° W 04:45:03 46° SW 05:00:45 10° SSE visible
07 May 12.6 21:33:52 10° SW 21:48:51 54° SSE 22:10:52 10° E visible
